Location: Ab? ar R?sh Ba?r?
(24.1861°N, 32.8847°E)
Time: 11:07:34
(UTC+00:00)

Cosmos 1455 - Pass Details

Date: 24 October 2021
Orbit: 496 x 520 km, 82.5° (Epoch: 03 December)

Event Time Altitude Azimuth Distance (km) Brightness Sun altitude
Rises 16:04:26 0° 160° (SSE) 2,626 5.7 -12.0°
Reaches altitude 10° 16:06:50 10° 146° (SSE) 1,740 4.6 -12.6°
Maximum altitude 16:09:58 24° 91° (E) 1,083 3.2 -13.3°
Enters shadow 16:11:07 21° 63° (ENE) 1,196 3.5 -13.6°
